Central Wisconsin Airport
KCWA : now visible

Airfield :











YOU CAN JOIN US ON...

 
LOGIN :

Register | Disclaimer

   EN    FR    IT 

 









Legend :    VFR   Marginal VFR   IFR   Intensive IFR   Very Intensive IFR
Visi :
Ceiling :
>= 8 km
>= 3000ft
5 to 8 km
1000 to 3000 ft
1500m to 5 km
500 to 1000 ft
800 to 1500m
200 to 500 ft
< 800m
< 200 ft
Symbols :   Thunderstorms  Fog  Heavy snow  Heavy precipitations  Wind > 20 kt






- Airport Elevation : 1277 ft


KCWA - Central Wisconsin

CURRENT METAR :
  • 041355Z 00000KT 10SM SKC 24/19 A3010

EXPIRED METARs :
  • 041245Z 08005KT 10SM SCT250 21/18 A3011
  • 041152Z VRB03KT 10SM SCT090 BKN250 19/18 A3011

TAF KCWA
Valid from the 04 at 12:00 until the 05 at 12:00 UTC


041120Z 0412/0512 VRB03KT 6SM BR SCT080
FM041300 20003KT P6SM SCT070
FM041600 21005KT P6SM SCT040 SCT250
FM042200 24003KT P6SM SCT040
FM050800 VRB03KT 6SM BR SCT090
TEMPO 0508/0512 4SM BR
KZMP FIR / North America



MET'MAP, your aeronautical weather chart ! - Copyright ORBIFLY December 2007 - Disclaimer

ORBIFLY MET'MAP TEAM :

Programming & Development : Alexandra Zaïnal
Concept & original design : Baudouin d'Aumeries
Assistance for programming : Marc-Olivier Méhu
Technical & hardware support : Manuel Goepfert

Contact : metmap@orbifly.com




SOURCES & CREDITS :

   NOAA       Earth
Advisory